Date,TemperatureHighF,TemperatureAvgF,TemperatureLowF,DewpointHighF,DewpointAvgF,DewpointLowF,HumidityHigh,HumidityAvg,HumidityLow,PressureMaxIn,PressureMinIn,WindSpeedMaxMPH,WindSpeedAvgMPH,GustSpeedMaxMPH,PrecipitationSumIn
2013-1-1,80,72,67,64,61,59,79,69,57,30.17,30.02,24,2,24,0.00
2013-1-2,84,72,62,70,64,59,94,77,50,30.07,29.96,11,1,11,0.00
2013-1-3,85,74,67,70,67,64,94,79,54,30.10,29.99,12,1,12,0.00
2013-1-4,80,72,66,71,68,64,95,87,68,30.20,30.07,10,2,10,0.00
2013-1-5,74,69,66,70,66,65,95,92,81,30.23,30.13,12,2,12,0.11
2013-1-6,81,73,66,74,68,64,96,86,69,30.16,30.03,17,2,17,0.05
2013-1-7,74,70,67,70,68,66,96,91,82,30.14,30.04,13,2,13,0.05
2013-1-8,82,75,68,75,70,67,96,87,70,30.17,30.04,18,2,18,0.09
2013-1-9,81,76,73,72,70,69,92,82,72,30.25,30.12,20,5,20,0.00
2013-1-10,80,76,72,70,67,64,82,74,62,30.27,30.15,24,4,24,0.00
2013-1-11,81,75,71,70,68,66,87,78,66,30.23,30.12,18,3,18,0.00
2013-1-12,79,74,68,71,68,65,90,81,68,30.15,30.06,17,2,17,0.01
2013-1-13,80,74,68,68,66,64,92,77,60,30.10,30.04,23,3,23,0.02
2013-1-14,80,73,65,66,64,62,90,76,59,30.14,30.08,19,2,19,0.00
2013-1-15,78,72,67,71,67,63,94,85,72,30.11,30.02,15,1,15,0.02
2013-1-16,81,73,64,72,67,62,95,84,66,30.08,29.98,16,2,16,0.05
2013-1-17,82,71,60,73,66,53,95,84,67,30.07,29.94,26,3,26,0.00
2013-1-18,70,62,52,60,54,46,82,73,66,30.21,30.07,17,6,17,0.00
2013-1-19,70,67,64,67,63,58,95,87,68,30.19,30.06,11,1,12,0.09
2013-1-20,79,70,64,69,66,62,97,87,62,30.12,29.98,13,1,13,0.10
2013-1-21,81,72,65,71,67,63,96,86,66,30.04,29.93,14,2,14,0.01
2013-1-22,74,66,61,63,60,56,95,79,61,30.19,29.98,18,5,18,0.00
2013-1-23,73,65,60,60,56,53,89,74,53,30.28,30.17,18,4,18,0.00
2013-1-24,73,64,58,56,54,44,89,70,46,30.27,30.16,13,4,13,0.00
2013-1-25,75,65,58,60,56,53,90,74,52,30.26,30.14,11,2,11,0.00
2013-1-26,77,66,58,61,58,53,94,77,52,30.23,30.13,11,2,11,0.00
2013-1-27,77,69,62,64,61,58,92,75,58,30.26,30.17,15,3,15,0.00
2013-1-28,79,74,70,66,64,62,79,72,58,30.29,30.19,19,4,19,0.00
2013-1-29,79,73,66,70,67,64,94,80,67,30.20,30.08,23,4,23,0.00
2013-1-30,80,74,69,68,66,64,90,76,64,30.09,29.93,25,4,25,0.00
2013-1-31,71,65,57,70,59,44,96,81,58,30.16,29.92,20,4,20,0.01
2013-2-1,70,60,52,56,50,40,80,67,58,30.25,30.14,16,7,18,0.00
2013-2-2,73,63,53,57,50,41,88,66,48,30.24,30.09,14,3,14,0.00
2013-2-3,72,62,55,57,50,37,93,67,30,30.15,30.04,16,3,16,0.00
2013-2-4,75,62,50,56,50,42,88,66,35,30.12,30.00,13,1,13,0.00
2013-2-5,80,67,55,64,59,53,94,77,43,30.05,29.97,13,1,13,0.00
2013-2-6,80,70,61,67,63,60,96,80,62,30.08,29.99,13,1,13,0.00
2013-2-7,81,72,62,67,64,60,94,78,53,30.05,29.91,16,2,16,0.00
2013-2-8,82,73,66,70,67,60,94,83,66,30.00,29.88,16,3,16,0.00
2013-2-9,78,70,62,67,63,58,96,80,65,30.14,29.99,16,4,16,0.00
2013-2-10,74,70,67,65,62,58,89,75,69,30.24,30.12,20,4,20,0.05
2013-2-11,78,72,66,66,64,60,89,77,66,30.19,30.08,20,3,20,0.00
2013-2-12,87,74,63,70,66,62,95,78,44,30.09,29.93,16,2,16,0.00
2013-2-13,87,77,68,72,69,66,95,80,55,29.98,29.86,21,3,21,0.01
2013-2-14,83,70,62,72,67,60,94,90,69,29.99,29.83,25,4,25,1.09
2013-2-15,71,66,63,67,64,61,96,93,83,30.00,29.91,13,2,13,0.24
2013-2-16,72,64,55,63,57,46,96,79,46,30.06,29.85,25,6,25,0.01
2013-2-17,56,51,44,46,32,22,75,51,30,30.28,30.05,25,8,25,0.00
2013-2-18,68,59,46,58,46,34,74,63,48,30.29,30.17,18,4,18,0.00
2013-2-19,78,70,59,66,61,54,94,75,62,30.17,30.05,18,4,18,0.21
2013-2-20,77,70,64,67,64,60,96,84,57,30.09,29.98,13,2,13,0.06
2013-2-21,82,72,64,68,65,63,96,80,61,30.06,29.97,15,2,15,0.00
2013-2-22,81,75,70,71,69,66,91,82,70,30.07,29.99,21,5,21,0.00
2013-2-23,87,77,72,73,70,68,93,80,56,30.02,29.88,17,4,17,0.03
2013-2-24,90,78,71,74,70,65,96,79,46,29.97,29.86,13,2,13,0.00
2013-2-25,85,76,70,73,70,67,93,84,62,29.89,29.77,20,2,20,0.04
2013-2-26,87,79,73,73,71,69,92,78,58,29.87,29.77,22,4,22,0.00
2013-2-27,76,69,64,73,65,62,95,87,68,29.94,29.83,11,2,12,0.33
2013-2-28,69,64,60,62,56,49,95,76,55,29.99,29.88,15,4,15,0.01
2013-3-1,64,61,58,57,52,48,87,74,62,29.97,29.88,14,4,14,0.00
2013-3-2,64,57,52,49,44,37,75,62,45,30.01,29.93,28,6,28,0.00
2013-3-3,61,54,49,48,43,40,89,69,50,30.13,29.93,24,5,24,0.02
2013-3-4,68,54,43,48,39,33,82,59,33,30.19,30.09,19,4,19,0.00
2013-3-5,77,64,51,58,54,47,90,71,47,30.15,30.05,17,2,17,0.00
2013-3-6,77,64,51,65,52,31,93,68,29,30.08,29.92,27,6,27,0.02
2013-3-7,69,58,47,56,45,37,89,64,43,30.16,30.04,12,4,15,0.00
2013-3-8,74,63,53,55,51,43,92,69,34,30.18,30.07,14,3,14,0.01
2013-3-9,74,64,54,58,54,51,91,73,53,30.16,30.08,15,3,15,0.00
2013-3-10,75,68,62,61,57,54,83,68,52,30.13,30.04,17,4,17,0.00
2013-3-11,77,71,67,63,61,57,79,70,51,30.08,29.93,19,4,19,0.00
2013-3-12,83,74,67,69,65,62,87,76,57,29.98,29.88,21,4,21,0.00
2013-3-13,74,65,56,65,54,46,92,71,40,30.10,29.95,18,5,18,0.00
2013-3-14,70,60,53,55,47,39,89,64,35,30.18,30.06,19,6,19,0.00
2013-3-15,71,61,51,55,50,45,83,68,43,30.23,30.12,17,4,17,0.00
2013-3-16,76,65,55,60,54,52,93,70,46,30.17,30.06,16,2,16,0.00
2013-3-17,77,68,59,62,59,54,91,73,54,30.13,30.00,20,3,20,0.00
2013-3-18,81,71,64,69,65,60,94,81,65,30.05,29.93,24,4,24,0.14
2013-3-19,80,72,68,69,67,66,95,85,65,29.99,29.77,23,2,23,0.02
2013-3-20,86,73,65,72,64,59,95,76,47,29.95,29.77,23,2,23,0.01
2013-3-21,73,66,61,61,53,40,92,66,30,29.92,29.80,16,4,16,0.00
2013-3-22,76,68,57,69,61,54,92,78,59,29.98,29.87,19,3,19,0.01
2013-3-23,90,80,72,76,70,67,95,76,50,29.96,29.77,18,3,18,0.07
2013-3-24,91,80,73,74,72,68,95,78,53,29.86,29.66,33,5,33,0.01
2013-3-25,76,72,63,72,61,45,95,70,42,29.98,29.72,20,5,20,0.07
2013-3-26,65,59,51,47,41,34,67,52,34,30.19,29.96,23,9,23,0.00
2013-3-27,67,56,46,49,42,36,78,60,38,30.23,30.14,18,5,18,0.00
2013-3-28,72,60,50,52,46,39,84,62,36,30.25,30.13,15,4,15,0.00
2013-3-29,74,64,55,55,51,46,79,63,47,30.27,30.17,16,4,16,0.00
2013-3-30,75,67,58,57,54,49,89,65,43,30.24,30.13,15,2,16,0.00
2013-3-31,81,71,60,67,62,55,92,74,56,30.16,30.02,21,4,21,0.00
2013-4-1,88,75,68,72,67,62,94,77,43,30.03,29.92,19,2,19,0.22
2013-4-2,85,73,65,69,65,62,96,79,51,30.06,29.96,12,2,12,0.01
2013-4-3,84,76,68,70,68,66,92,77,57,30.04,29.96,22,4,22,0.00
2013-4-4,88,75,68,73,69,65,95,82,58,30.02,29.87,28,4,32,0.36
2013-4-5,72,68,63,69,65,61,96,92,83,29.97,29.79,18,3,18,0.09
2013-4-6,76,67,58,66,61,56,94,80,64,30.06,29.90,19,6,19,0.00
2013-4-7,77,72,66,65,63,62,86,73,63,30.11,30.00,14,3,16,0.02
2013-4-8,82,73,63,66,62,53,92,71,39,30.10,30.01,19,2,19,0.02
2013-4-9,80,74,67,69,66,63,92,77,64,30.12,30.02,17,3,17,0.00
2013-4-10,84,77,71,72,70,66,88,79,66,30.08,29.96,21,4,21,0.01
2013-4-11,84,78,75,73,71,70,87,80,67,29.99,29.87,24,7,24,0.01
2013-4-12,90,80,76,77,74,72,90,83,63,29.93,29.83,21,4,21,0.00
2013-4-13,88,77,72,76,72,69,93,87,66,29.94,29.85,14,1,14,0.00
2013-4-14,88,79,73,76,73,71,96,83,62,29.94,29.86,21,4,21,0.02
2013-4-15,90,78,71,77,73,68,95,86,62,30.03,29.90,20,3,20,0.06
2013-4-16,86,78,72,77,72,70,95,85,68,30.09,29.99,17,4,17,0.04
2013-4-17,82,77,72,71,69,68,91,78,64,30.08,29.99,15,3,15,0.19
2013-4-18,86,80,73,74,71,68,88,75,58,30.03,29.95,18,4,19,0.09
2013-4-19,88,81,77,74,72,69,84,74,57,30.01,29.93,24,6,24,0.00
2013-4-20,92,79,73,76,72,69,93,82,54,30.05,29.90,26,3,26,0.04
2013-4-21,86,77,71,74,71,69,95,84,65,30.06,29.95,18,4,18,0.08
2013-4-22,87,74,68,72,69,66,95,86,60,30.02,29.89,19,2,19,0.06
2013-4-23,82,74,67,71,66,63,96,79,61,30.06,29.92,21,5,21,0.11
2013-4-24,83,76,68,68,64,61,88,69,54,30.10,30.00,17,3,17,0.02
2013-4-25,81,75,69,65,63,61,81,67,54,30.17,30.05,15,2,15,0.01
2013-4-26,81,74,67,67,65,62,89,73,59,30.19,30.09,17,3,17,0.00
2013-4-27,81,76,70,68,65,61,79,69,56,30.18,30.05,18,4,18,0.01
2013-4-28,82,76,72,67,64,62,79,67,55,30.09,29.96,18,4,18,0.00
2013-4-29,84,77,73,72,68,63,85,75,64,30.00,29.90,20,4,20,0.00
2013-4-30,87,76,71,74,70,67,93,82,58,29.96,29.90,21,2,21,0.00
2013-5-1,86,75,70,75,71,68,94,87,64,29.98,29.89,15,2,15,0.00
2013-5-2,79,72,69,74,69,67,95,92,81,29.92,29.75,21,3,21,0.01
2013-5-3,88,74,67,72,69,66,96,84,53,29.79,29.66,16,2,16,0.03
2013-5-4,88,76,68,71,68,65,96,78,53,29.78,29.66,22,4,22,0.02
2013-5-5,79,73,68,67,63,55,93,74,45,29.91,29.73,23,4,23,0.04
2013-5-6,88,73,60,67,62,57,91,70,41,29.99,29.89,14,2,14,0.02
2013-5-7,86,73,63,64,61,59,91,68,40,30.04,29.94,15,3,16,0.01
2013-5-8,90,76,62,66,61,55,93,64,32,30.11,30.01,16,1,16,0.00
2013-5-9,90,78,66,73,67,59,87,72,47,30.11,30.02,17,2,17,0.00
2013-5-10,90,81,73,74,72,68,88,76,53,30.10,29.99,19,3,19,0.11
2013-5-11,89,79,73,76,73,70,94,82,64,30.04,29.95,18,3,18,0.07
2013-5-12,96,79,72,77,72,69,95,81,47,30.03,29.92,13,2,16,0.19
2013-5-13,86,78,72,73,70,65,95,79,57,30.06,29.96,16,3,16,0.01
2013-5-14,80,75,69,68,63,58,88,68,51,30.15,30.03,19,4,19,0.00
2013-5-15,82,74,67,65,62,58,86,66,47,30.16,30.06,17,3,17,0.00
2013-5-16,85,76,67,65,63,59,88,66,48,30.08,30.01,15,2,15,0.00
2013-5-17,93,78,70,73,69,64,89,75,44,30.06,29.98,15,2,15,0.00
2013-5-18,87,80,74,75,72,70,92,78,64,30.07,29.99,21,3,21,0.00
2013-5-19,87,79,72,72,70,67,91,74,53,30.07,29.97,14,2,14,0.00
2013-5-20,79,75,69,75,71,67,95,89,81,30.05,29.94,19,2,19,0.96
2013-5-21,84,76,71,75,71,68,96,85,65,30.02,29.90,19,3,19,0.79
2013-5-22,91,76,71,75,72,68,93,87,56,29.94,29.86,20,1,20,0.19
2013-5-23,94,81,73,76,72,67,96,77,45,29.98,29.88,14,2,14,0.09
2013-5-24,93,81,73,76,73,66,94,77,45,30.03,29.92,14,2,14,0.07
2013-5-25,84,80,75,75,70,66,91,73,56,30.13,30.01,20,5,20,0.05
2013-5-26,83,78,70,69,66,62,83,68,57,30.14,30.07,16,4,16,0.04
2013-5-27,84,78,72,73,70,65,92,77,68,30.13,30.03,17,4,17,0.04
2013-5-28,82,77,74,74,72,70,92,85,75,30.08,30.01,24,5,24,0.04
2013-5-29,80,75,71,75,71,68,95,88,75,30.07,29.99,27,4,27,1.17
2013-5-30,82,77,71,76,72,68,94,86,76,30.03,29.97,23,6,23,0.62
2013-5-31,84,78,74,76,74,71,92,86,75,30.03,29.96,19,4,19,0.31
2013-6-1,83,76,73,77,74,72,97,92,76,30.00,29.92,15,2,15,3.75
2013-6-2,94,79,72,80,74,71,97,85,54,29.98,29.88,17,1,17,0.00
2013-6-3,91,81,74,77,74,72,94,81,57,30.01,29.88,12,1,12,0.03
2013-6-4,86,78,73,77,74,71,96,86,64,30.02,29.92,11,1,11,0.08
2013-6-5,84,80,78,77,76,74,90,85,76,29.99,29.86,6,2,14,0.14
2013-6-6,89,80,76,79,76,71,95,86,67,29.88,29.75,12,6,35,0.39
2013-6-7,92,77,73,78,74,72,97,89,61,29.97,29.81,17,2,20,1.03
2013-6-8,86,79,74,80,75,73,97,90,72,30.08,29.93,19,2,19,1.46
2013-6-9,88,82,78,76,75,73,90,79,66,30.08,30.00,19,4,19,0.00
2013-6-10,89,83,79,77,76,74,87,79,67,30.07,29.98,17,4,17,0.00
2013-6-11,91,82,78,80,77,74,94,84,60,30.07,29.97,18,2,18,0.55
2013-6-12,91,80,76,78,75,71,94,86,64,30.05,29.98,19,0,19,0.16
2013-6-13,92,81,76,80,74,71,96,82,57,30.02,29.91,14,1,14,0.01
2013-6-14,98,82,75,77,74,71,94,77,48,29.95,29.85,17,2,17,0.00
2013-6-15,95,83,76,77,74,72,95,78,50,30.03,29.90,12,1,12,0.00
2013-6-16,91,83,77,78,75,74,93,78,59,30.06,29.98,14,2,14,0.00
2013-6-17,92,85,78,77,76,73,91,75,57,30.05,29.97,17,2,17,0.00
2013-6-18,92,85,78,77,76,74,91,75,58,30.04,29.95,18,3,18,0.00
2013-6-19,92,84,79,79,76,73,93,77,60,30.02,29.95,17,2,17,0.00
2013-6-20,95,81,73,77,73,69,93,78,52,30.06,29.98,24,2,24,0.65
2013-6-21,91,83,74,78,74,70,94,76,51,30.08,30.00,16,2,18,0.30
2013-6-22,90,84,78,76,74,72,89,74,56,30.07,30.00,13,2,13,0.00
2013-6-23,90,83,78,76,74,71,86,75,61,30.10,30.02,20,3,20,0.11
2013-6-24,88,83,77,76,74,72,89,76,63,30.13,30.04,23,3,23,0.10
2013-6-25,90,82,76,78,75,71,94,80,65,30.11,30.01,19,3,19,0.61
2013-6-26,91,84,78,77,75,73,88,76,56,30.05,29.98,18,3,18,0.00
2013-6-27,91,82,75,78,75,70,90,79,62,30.03,29.93,15,1,15,0.09
2013-6-28,93,82,72,78,75,69,93,79,56,29.97,29.83,20,2,20,0.91
2013-6-29,97,81,74,79,75,70,95,84,49,29.89,29.80,23,1,23,1.09
2013-6-30,92,80,75,79,75,72,93,85,59,29.92,29.82,25,3,25,0.61
2013-7-1,89,80,77,78,75,71,93,85,64,30.01,29.89,24,3,24,0.06
2013-7-2,89,82,77,78,76,73,92,83,69,30.08,29.94,20,3,20,0.03
2013-7-3,88,82,76,77,75,72,91,81,68,30.11,30.01,25,5,26,0.02
2013-7-4,89,82,74,77,75,71,95,80,65,30.14,30.03,27,5,27,0.02
2013-7-5,87,80,74,77,75,72,95,84,71,30.11,30.01,20,4,21,0.02
2013-7-6,88,83,79,77,75,71,88,77,63,30.09,29.99,19,4,19,0.71
2013-7-7,88,83,78,77,75,73,87,76,66,30.07,29.99,19,4,19,0.00
2013-7-8,88,83,77,75,74,72,85,75,62,30.11,30.04,18,2,18,0.00
2013-7-9,88,81,76,75,73,69,91,77,60,30.11,30.02,19,2,19,0.00
2013-7-10,86,78,73,76,73,69,94,85,67,30.06,29.97,13,2,13,0.20
2013-7-11,92,82,76,78,75,71,94,79,56,30.01,29.91,18,2,18,0.00
2013-7-12,93,81,76,80,75,71,93,82,54,29.95,29.86,14,1,14,0.14
2013-7-13,93,77,72,77,72,70,96,88,57,30.00,29.89,21,2,21,1.91
2013-7-14,90,78,72,76,73,69,96,86,59,30.07,29.95,18,2,18,1.19
2013-7-15,89,80,73,76,73,71,95,82,60,30.06,29.98,14,2,15,0.15
2013-7-16,83,78,74,75,72,69,92,82,68,30.11,30.01,28,4,28,0.04
2013-7-17,78,75,72,73,72,69,95,91,82,30.12,30.03,22,1,22,0.38
2013-7-18,86,76,71,78,73,68,96,89,71,30.10,30.02,9,2,22,1.52
2013-7-19,89,80,73,79,76,72,97,86,66,30.10,30.01,14,3,19,0.00
2013-7-20,85,80,79,79,77,76,93,90,81,30.08,30.00,16,1,16,0.03
2013-7-21,93,81,76,80,76,70,94,85,64,30.12,30.01,12,1,29,0.39
2013-7-22,93,84,77,78,75,73,93,77,53,30.11,30.03,7,2,16,0.00
2013-7-23,99,87,77,79,75,72,92,71,44,30.08,29.93,7,2,16,0.00
2013-7-24,96,84,77,78,75,71,95,75,50,30.00,29.88,7,2,18,0.31
2013-7-25,95,85,77,78,75,73,90,73,54,29.99,29.89,15,2,15,0.00
2013-7-26,95,86,77,81,76,73,92,74,55,30.00,29.91,21,3,21,0.06
2013-7-27,94,80,75,79,76,72,94,88,61,29.98,29.90,21,2,21,0.79
2013-7-28,90,81,76,79,76,71,92,85,67,30.05,29.92,17,1,17,0.16
2013-7-29,92,83,76,79,76,74,94,81,63,30.10,29.99,14,2,14,0.00
2013-7-30,90,84,76,80,76,73,92,80,65,30.13,30.05,15,2,15,0.21
2013-7-31,91,84,79,78,76,73,91,76,59,30.08,29.97,17,3,17,0.00
2013-8-1,90,84,79,76,75,71,86,75,60,30.03,29.91,15,3,17,0.00
2013-8-2,82,79,77,76,74,73,93,86,81,29.95,29.89,7,1,7,0.00
2013-8-3,88,78,72,78,74,68,95,89,73,30.11,29.99,13,1,28,1.10
2013-8-4,98,85,76,80,76,73,95,76,47,30.08,29.95,18,1,18,0.01
2013-8-5,94,82,77,80,76,73,93,82,59,30.01,29.92,9,2,22,0.03
2013-8-6,94,82,76,80,76,73,94,83,56,29.96,29.85,9,1,21,0.30
2013-8-7,91,83,77,80,76,74,95,80,60,29.95,29.87,11,3,19,0.09
2013-8-8,92,85,79,78,76,73,89,75,60,29.99,29.90,20,4,20,0.07
2013-8-9,88,82,78,77,74,71,86,77,66,30.03,29.92,28,4,28,0.07
2013-8-10,92,84,79,78,76,74,87,76,58,30.09,30.00,15,4,20,0.00
2013-8-11,91,85,80,78,76,75,86,76,61,30.10,30.03,15,3,15,0.00
2013-8-12,89,83,78,77,75,73,89,77,60,30.08,29.99,13,2,17,0.00
2013-8-13,93,85,79,78,76,72,91,74,52,30.01,29.92,18,2,18,0.00
2013-8-14,94,85,78,79,75,73,93,75,55,30.00,29.90,19,3,19,0.00
2013-8-15,89,81,76,78,76,73,92,83,68,30.03,29.93,12,2,12,0.15
2013-8-16,92,85,79,80,77,76,91,79,61,30.02,29.94,17,2,17,0.00
2013-8-17,91,85,81,79,78,76,88,78,64,30.05,29.97,18,3,18,0.00
2013-8-18,90,85,81,79,77,75,85,77,67,30.04,29.96,19,4,19,0.01
2013-8-19,91,85,79,78,76,74,89,77,63,30.04,29.93,20,3,20,0.00
2013-8-20,91,85,80,77,76,73,85,75,58,30.03,29.95,18,3,18,0.00
2013-8-21,89,82,78,80,77,74,92,84,69,30.05,29.96,23,3,23,0.36
2013-8-22,90,83,74,80,77,71,95,82,65,30.06,29.92,25,2,25,0.73
2013-8-23,91,83,79,78,76,73,91,80,59,29.99,29.90,16,2,16,0.00
2013-8-24,92,84,75,79,76,71,92,78,59,30.09,29.94,15,2,15,0.94
2013-8-25,86,80,76,77,75,73,95,86,70,30.12,30.00,15,2,15,0.04
2013-8-26,90,81,75,78,74,71,93,82,64,30.09,29.98,17,2,17,0.03
2013-8-27,87,79,74,76,73,69,94,83,61,30.02,29.94,14,1,14,0.04
2013-8-28,88,79,71,77,74,66,93,84,65,30.01,29.92,20,2,20,0.94
2013-8-29,92,82,74,77,75,72,94,79,59,30.00,29.90,13,2,13,0.00
2013-8-30,95,85,77,78,75,70,93,74,48,29.98,29.86,15,2,15,0.00
2013-8-31,94,81,75,79,74,72,93,81,54,29.95,29.88,14,1,14,0.15
2013-9-1,92,80,75,78,75,73,96,86,55,29.97,29.90,7,0,11,0.02
2013-9-2,96,80,75,81,75,72,96,87,51,30.00,29.91,25,1,25,0.26
2013-9-3,92,81,74,78,75,73,95,83,60,29.99,29.90,12,1,12,0.00
2013-9-4,85,81,78,80,77,74,94,87,77,30.04,29.92,14,1,14,0.19
2013-9-5,80,80,79,77,76,76,91,90,88,30.02,29.96,3,0,3,0.00
2013-9-6,93,83,79,79,77,74,93,82,59,30.01,29.95,10,1,10,0.00
2013-9-7,87,78,72,78,74,68,94,88,72,29.96,29.88,22,2,22,0.84
2013-9-8,91,78,74,78,74,71,95,87,60,29.92,29.82,18,1,18,0.01
2013-9-9,88,81,75,77,74,72,94,80,65,29.97,29.87,24,2,24,0.40
2013-9-10,88,81,76,77,75,72,94,82,65,30.01,29.92,20,3,20,0.01
2013-9-11,82,79,74,76,74,71,93,86,79,30.03,29.93,17,2,17,0.66
2013-9-12,85,80,76,77,76,74,95,86,74,29.99,29.86,9,1,9,0.00
2013-9-13,95,82,75,78,75,70,96,79,47,29.88,29.77,13,1,13,0.00
2013-9-14,92,84,77,78,75,70,94,76,52,29.94,29.80,14,1,14,0.00
2013-9-15,87,80,76,78,76,71,92,87,74,30.03,29.89,19,1,19,0.64
2013-9-16,84,79,73,78,76,70,95,89,78,30.01,29.93,23,2,23,0.39
2013-9-17,81,79,74,76,75,72,95,88,79,30.00,29.88,15,3,15,0.14
2013-9-18,87,79,74,77,74,72,94,85,67,29.99,29.88,12,1,12,0.02
2013-9-19,87,79,74,77,74,72,96,85,68,29.98,29.89,12,3,16,0.45
2013-9-20,85,79,74,74,72,68,93,78,57,29.97,29.86,17,3,17,0.01
2013-9-21,89,80,74,76,73,71,92,79,62,29.89,29.74,12,1,14,0.02
2013-9-22,93,84,76,77,75,71,94,77,49,29.84,29.72,14,2,14,0.00
2013-9-23,89,80,77,79,76,75,94,88,69,29.95,29.83,10,1,12,0.34
2013-9-24,94,81,74,81,75,72,95,83,59,29.94,29.84,16,2,22,0.23
2013-9-25,90,80,75,80,75,72,92,84,61,29.89,29.77,13,2,16,0.00
2013-9-26,89,80,76,82,76,74,94,89,72,29.84,29.76,27,2,27,0.22
2013-9-27,87,80,74,76,73,68,96,82,54,29.89,29.79,12,3,13,0.00
2013-9-28,86,79,74,75,73,71,94,82,65,29.93,29.84,17,3,17,0.16
2013-9-29,88,78,73,74,72,68,95,82,57,29.94,29.85,10,1,10,0.00
2013-10-11,85,78,71,72,69,66,93,76,55,29.98,29.91,8,2,14,0.00
2013-10-12,86,78,71,72,69,66,95,77,54,30.00,29.92,7,1,13,0.00
2013-10-13,84,77,73,72,69,64,94,76,52,30.02,29.93,10,3,16,0.00
2013-10-14,84,77,72,71,70,68,93,78,61,29.99,29.87,6,2,14,0.00
2013-10-15,85,77,71,72,71,68,95,81,59,29.93,29.83,8,2,13,0.00
2013-10-16,84,77,72,73,70,67,93,80,58,29.92,29.85,6,1,11,0.00
2013-10-17,85,78,72,74,71,70,95,80,64,29.94,29.86,4,1,11,0.20
2013-10-18,87,79,72,74,72,71,96,81,63,29.96,29.87,11,1,15,0.00
2013-10-19,91,81,73,76,73,70,94,77,58,29.93,29.84,15,2,15,0.00
2013-10-20,93,82,76,78,75,70,95,81,50,29.93,29.84,13,2,13,0.00
2013-10-21,92,82,76,77,75,73,93,79,61,29.97,29.87,16,2,16,0.00
2013-10-22,91,82,76,78,75,73,94,80,59,29.94,29.80,15,2,15,0.11
2013-10-23,87,79,75,76,73,69,94,82,65,29.93,29.79,16,3,16,0.00
2013-10-24,79,75,71,70,66,63,83,75,66,30.06,29.90,16,5,16,0.00
2013-10-25,81,74,68,67,65,63,87,74,57,30.12,30.03,21,5,21,0.00
2013-10-26,82,73,67,67,65,63,89,76,56,30.12,30.02,15,2,15,0.00
2013-10-27,70,69,68,64,63,62,85,83,79,30.05,30.00,6,2,6,0.00
2013-11-7,85,76,70,72,69,67,95,82,56,29.99,29.89,7,2,13,0.00
2013-11-8,82,75,70,73,70,68,94,84,63,30.00,29.91,13,6,21,0.15
2013-11-9,78,75,73,72,71,70,95,88,80,30.08,29.98,11,6,22,0.90
2013-11-10,82,77,73,73,71,69,90,80,71,30.09,30.01,8,4,14,0.02
2013-11-11,82,76,70,72,69,67,93,81,69,30.08,30.01,9,3,17,0.00
2013-11-12,82,76,70,71,68,66,94,79,62,30.05,29.93,6,2,12,0.00
2013-11-13,75,71,69,68,64,57,88,78,65,30.18,29.96,24,9,25,0.13
2013-11-14,75,72,69,62,59,55,71,63,55,30.21,30.10,21,6,21,0.00
2013-11-15,81,76,72,70,67,62,77,73,65,30.11,29.99,20,4,20,0.00
2013-11-16,79,76,73,72,70,67,89,81,73,30.06,29.98,18,3,18,0.18
2013-11-17,84,78,72,74,71,69,90,78,66,30.04,29.97,18,3,18,0.00
2013-11-18,85,77,71,74,71,69,95,83,67,30.00,29.89,11,0,11,0.00
2013-11-19,83,76,72,73,71,69,94,86,69,29.91,29.82,13,2,13,0.00
2013-11-20,83,76,69,74,71,68,95,87,71,30.03,29.89,11,1,11,0.05
2013-11-21,81,76,72,74,72,70,95,88,74,30.11,30.00,15,2,15,0.80
2013-11-22,80,77,75,72,70,68,86,80,72,30.12,30.03,20,5,20,0.00
2013-11-23,81,76,72,72,70,68,89,82,71,30.05,29.94,11,2,14,0.00
2013-11-24,80,73,69,70,68,64,94,83,66,30.11,29.95,20,5,20,0.07
2013-11-25,75,73,71,69,65,60,89,77,68,30.17,30.01,22,8,22,0.05
2013-11-26,84,77,72,74,72,68,93,85,71,30.02,29.80,26,5,26,0.12
2013-11-27,77,71,58,74,65,52,96,82,57,30.09,29.75,25,6,25,0.95
2013-11-28,72,61,47,60,53,44,92,77,56,30.22,30.09,20,6,20,0.00
2013-11-29,76,68,59,63,60,56,92,76,56,30.24,30.15,20,5,20,0.00
2013-11-30,74,68,61,69,63,59,94,84,69,30.18,30.07,12,4,18,0.23
2013-12-1,75,68,62,72,65,60,96,92,82,30.08,29.91,9,2,11,1.26
2013-12-2,73,67,63,67,64,60,96,89,67,29.92,29.79,15,3,15,0.00
2013-12-3,63,62,61,60,60,59,94,93,92,29.88,29.87,2,0,2,0.00
2013-12-4,82,73,66,71,66,64,94,80,62,30.06,29.95,5,1,12,0.00
2013-12-5,82,74,66,72,68,64,95,83,68,30.13,30.04,9,2,19,0.00
2013-12-6,82,76,69,71,69,66,92,79,65,30.15,30.05,20,3,20,0.00
2013-12-7,83,73,67,72,68,65,95,85,60,30.19,30.10,12,1,12,0.00
2013-12-8,82,76,69,72,69,67,94,81,64,30.18,30.09,9,3,20,0.07
2013-12-9,83,77,71,71,68,63,90,75,52,30.16,30.07,9,3,21,0.00
2013-12-10,85,76,69,73,71,67,94,83,64,30.13,30.04,7,1,14,0.00
2013-12-11,82,75,69,74,70,68,96,87,68,30.17,30.09,5,1,12,0.00
2013-12-12,77,70,64,72,66,60,96,87,71,30.20,30.10,13,5,20,0.00
2013-12-13,77,72,63,68,64,58,89,75,66,30.17,30.06,9,4,19,0.16
2013-12-14,81,76,71,72,70,68,91,82,69,30.08,29.95,11,4,22,0.01
2013-12-15,85,76,70,76,71,66,95,87,71,30.03,29.90,19,2,19,0.00
2013-12-16,70,68,65,66,64,59,90,86,80,30.03,30.00,15,5,15,0.00
2013-12-17,76,66,58,65,60,56,94,80,62,30.15,30.06,10,4,16,0.00
2013-12-18,74,65,59,60,58,56,93,79,57,30.21,30.11,16,4,16,0.00
2013-12-19,60,60,60,57,57,57,89,89,88,30.19,30.18,4,1,4,0.00
2013-12-20,81,74,65,70,67,62,92,79,66,30.16,30.07,9,2,18,0.00
2013-12-21,82,78,75,73,71,69,87,81,69,30.11,30.03,12,5,22,0.00
2013-12-22,83,78,76,73,72,71,88,81,69,30.13,30.04,12,6,25,0.00
2013-12-23,84,78,72,74,72,69,91,82,69,30.14,30.08,16,4,24,0.00
2013-12-24,82,72,67,74,68,61,96,88,68,30.15,30.05,20,4,20,0.02
2013-12-25,76,72,70,67,66,64,87,79,71,30.14,30.06,11,6,23,0.01
2013-12-26,78,74,71,71,69,67,90,84,75,30.13,30.03,11,3,12,0.02
2013-12-27,80,74,68,71,69,66,95,84,73,30.17,30.06,14,3,14,0.01
2013-12-28,79,76,74,72,70,68,89,83,77,30.14,29.98,21,5,21,0.01
2013-12-29,82,77,74,74,73,71,95,87,77,30.01,29.90,16,4,20,0.00
2013-12-30,77,72,67,72,69,64,97,90,78,30.12,29.95,14,3,14,0.00
2013-12-31,77,72,66,67,64,62,89,78,67,30.19,30.08,22,6,22,0.00
2014-1-1,80,74,72,73,70,65,95,87,75,30.17,30.01,16,3,16,0.30
2014-1-2,85,76,68,73,69,67,97,82,58,30.01,29.83,19,2,19,0.01